sat.trackr.live / text

‹ back to catalog

2022-023B

NORAD 51947 · 2022-023B

PAYLOAD ACTIVE UNKNOWN

§ Identity

Operator
Country
PRC
Launch date
2022-03-05
Launch site
XICLF
Launch vehicle
Mass (kg)
RCS (m²)

External: N2YO · Heavens-Above · Gunter

§ Orbital elements

Epoch: 2026-05-25T02:33:34.311168Z

Period
94.86 min
Inclination
63.4853°
Eccentricity
0.0098136
Mean motion
15.17986651 rev/d
Perigee alt
444.3 km
Apogee alt
579.5 km
Semi-major
6,890.1 km
B*
6.4054e-4
RAAN
348.1596°
Arg perigee
347.2595°
Mean anomaly
12.6038°
Rev number
23,421

§ Raw data

2022-023B1 51947U 22023B   26145.10664712  .00014638  00000+0  64054-3 0  99932 51947  63.4853 348.1596 0098136 347.2595  12.6038 15.17986651234216

JSON: /api/v1/satellites/51947 · /tle

For live sub-satellite position, see the globe view (requires WebGL).

§ Visibility from observer

Set your observer location to see the next 7 days of passes ≥ 10°. The values pass through the URL so the page stays shareable.

No JS? Fill the form by hand. The geolocation button needs JavaScript.